| time (UTC) | temp C | wind direction | speed KPH | gust KPH | rain 1hr cm | rain 24hr cm | rain mn cm | humidity % | barometer mb |
| 20260503070605 | 5 | 0 | 0.0 | 1.6 | 0.00 | 0.00 | 0.00 | 25 | 1027.1 |
| 20260503070111 | 5 | 0 | 0.0 | 1.6 | 0.00 | 0.00 | 0.00 | 25 | 1027.0 |
| 20260503060113 | 3 | 0 | 0.0 | 0.0 | 0.00 | 0.00 | 0.00 | 26 | 1027.1 |
| 20260503050608 | 3 | 0 | 0.0 | 0.0 | 0.00 | 0.00 | 0.00 | 26 | 1027.1 |
| 20260503050112 | 3 | 0 | 0.0 | 0.0 | 0.00 | 0.00 | 0.00 | 27 | 1027.1 |
| 20260503040607 | 5 | 0 | 0.0 | 0.0 | 0.00 | 0.00 | 0.00 | 25 | 1027.1 |
| 20260503040112 | 5 | 0 | 0.0 | 0.0 | 0.00 | 0.00 | 0.00 | 24 | 1027.1 |
| 20260503030608 | 7 | 0 | 0.0 | 0.0 | 0.00 | 0.00 | 0.00 | 20 | 1026.3 |
| 20260503030113 | 7 | 0 | 0.0 | 0.0 | 0.00 | 0.00 | 0.00 | 20 | 1026.2 |
| 20260503020607 | 11 | 0 | 0.0 | 1.6 | 0.00 | 0.00 | 0.00 | 15 | 1025.3 |
| 20260503020114 | 12 | 0 | 0.0 | 1.6 | 0.00 | 0.00 | 0.00 | 15 | 1025.3 |
| 20260503010607 | 17 | 0 | 0.0 | 1.6 | 0.00 | 0.00 | 0.00 | 9 | 1025.1 |
| 20260503010113 | 17 | 0 | 0.0 | 3.2 | 0.00 | 0.00 | 0.00 | 9 | 1025.2 |
| 20260503000607 | 18 | 0 | 1.6 | 9.7 | 0.00 | 0.00 | 0.00 | 8 | 1025.9 |
| 20260502230607 | 18 | 0 | 0.0 | 16.1 | 0.00 | 0.00 | 0.00 | 9 | 1026.1 |
| 20260502230112 | 18 | 0 | 4.8 | 16.1 | 0.00 | 0.00 | 0.00 | 9 | 1026.2 |
| 20260502220607 | 17 | 0 | 1.6 | 8.0 | 0.00 | 0.00 | 0.00 | 10 | 1026.9 |
| 20260502220112 | 17 | 0 | 0.0 | 8.0 | 0.00 | 0.00 | 0.00 | 8 | 1026.9 |
| 20260502210606 | 17 | 0 | 0.0 | 11.3 | 0.00 | 0.00 | 0.00 | 10 | 1028.3 |
| 20260502210112 | 17 | 0 | 3.2 | 11.3 | 0.00 | 0.00 | 0.00 | 12 | 1028.3 |
| 20260502200112 | 17 | 0 | 3.2 | 11.3 | 0.00 | 0.00 | 0.00 | 12 | 1028.7 |
| 20260502190614 | 15 | 0 | 4.8 | 19.3 | 0.00 | 0.00 | 0.00 | 15 | 1029.2 |
| 20260502190111 | 16 | 0 | 3.2 | 19.3 | 0.00 | 0.00 | 0.00 | 13 | 1029.3 |
| 20260502180607 | 15 | 0 | 3.2 | 12.9 | 0.00 | 0.00 | 0.00 | 17 | 1030.4 |
| 20260502180111 | 15 | 0 | 1.6 | 9.7 | 0.00 | 0.00 | 0.00 | 17 | 1030.3 |
| 20260502170111 | 14 | 0 | 1.6 | 14.5 | 0.00 | 0.00 | 0.00 | 20 | 1030.5 |
| 20260502160607 | 12 | 0 | 6.4 | 16.1 | 0.00 | 0.00 | 0.00 | 26 | 1030.8 |
| 20260502160111 | 12 | 0 | 4.8 | 20.9 | 0.00 | 0.00 | 0.00 | 26 | 1030.8 |
| 20260502150607 | 10 | 0 | 4.8 | 16.1 | 0.00 | 0.00 | 0.00 | 32 | 1030.8 |
| 20260502150111 | 10 | 0 | 8.0 | 16.1 | 0.00 | 0.00 | 0.00 | 32 | 1030.8 |
| 20260502140112 | 7 | 0 | 4.8 | 16.1 | 0.00 | 0.00 | 0.00 | 43 | 1030.8 |
| 20260502120606 | 2 | 0 | 0.0 | 9.7 | 0.00 | 0.00 | 0.00 | 53 | 1029.9 |
| 20260502120112 | 2 | 0 | 1.6 | 9.7 | 0.00 | 0.00 | 0.00 | 52 | 1029.9 |
| 20260502110606 | 2 | 0 | 1.6 | 8.0 | 0.00 | 0.00 | 0.00 | 51 | 1030.4 |
| 20260502100607 | 2 | 0 | 1.6 | 8.0 | 0.00 | 0.00 | 0.00 | 48 | 1030.1 |
| 20260502100111 | 3 | 0 | 1.6 | 8.0 | 0.00 | 0.00 | 0.00 | 48 | 1030.1 |
| 20260502090607 | 1 | 0 | 0.0 | 3.2 | 0.00 | 0.00 | 0.00 | 38 | 1030.0 |
| 20260502090111 | 1 | 0 | 0.0 | 0.0 | 0.00 | 0.00 | 0.00 | 38 | 1029.8 |